TimeCST,TemperatureF,Dew PointF,Humidity,Sea Level PressureIn,VisibilityMPH,Wind Direction,Wind SpeedMPH,Gust SpeedMPH,PrecipitationIn,Events,Conditions,WindDirDegrees,DateUTC
12:54 AM,32.0,25.0,75,30.16,10.0,Calm,Calm,-,N/A,,Clear,0,2013-02-12 06:54:00
1:54 AM,30.9,25.0,79,30.17,10.0,Calm,Calm,-,N/A,,Clear,0,2013-02-12 07:54:00
2:54 AM,30.0,25.0,82,30.16,10.0,Calm,Calm,-,N/A,,Clear,0,2013-02-12 08:54:00
3:54 AM,34.0,25.0,70,30.16,10.0,Calm,Calm,-,N/A,,Clear,0,2013-02-12 09:54:00
4:54 AM,30.0,23.0,75,30.17,10.0,Calm,Calm,-,N/A,,Clear,0,2013-02-12 10:54:00
5:54 AM,28.0,24.1,85,30.18,10.0,Calm,Calm,-,N/A,,Clear,0,2013-02-12 11:54:00
6:54 AM,30.0,24.1,79,30.19,10.0,Calm,Calm,-,N/A,,Clear,0,2013-02-12 12:54:00
7:54 AM,33.1,27.0,78,30.18,10.0,Calm,Calm,-,N/A,,Clear,0,2013-02-12 13:54:00
8:54 AM,39.9,28.0,63,30.18,10.0,Calm,Calm,-,N/A,,Clear,0,2013-02-12 14:54:00
9:54 AM,43.0,28.9,58,30.17,10.0,Calm,Calm,-,N/A,,Clear,0,2013-02-12 15:54:00
10:54 AM,45.0,28.0,52,30.13,10.0,Calm,Calm,-,N/A,,Clear,0,2013-02-12 16:54:00
11:54 AM,46.0,28.0,50,30.14,10.0,Variable,3.5,-,N/A,,Clear,0,2013-02-12 17:54:00
12:54 PM,48.0,28.9,48,30.11,10.0,Calm,Calm,-,N/A,,Clear,0,2013-02-12 18:54:00
1:54 PM,48.0,28.0,46,30.10,10.0,Calm,Calm,-,N/A,,Clear,0,2013-02-12 19:54:00
2:54 PM,48.0,28.0,46,30.05,10.0,Calm,Calm,-,N/A,,Clear,0,2013-02-12 20:54:00
3:54 PM,48.0,28.9,48,30.03,10.0,NE,3.5,-,N/A,,Clear,50,2013-02-12 21:54:00
4:54 PM,46.9,30.0,52,30.03,10.0,Calm,Calm,-,N/A,,Clear,0,2013-02-12 22:54:00
5:54 PM,44.1,30.0,58,30.01,10.0,North,3.5,-,N/A,,Clear,360,2013-02-12 23:54:00
6:54 PM,42.1,30.9,65,29.98,10.0,North,8.1,-,N/A,,Clear,10,2013-02-13 00:54:00
7:54 PM,42.1,32.0,67,29.99,10.0,Calm,Calm,-,N/A,,Clear,0,2013-02-13 01:54:00
8:54 PM,41.0,32.0,70,29.96,10.0,Calm,Calm,-,N/A,,Overcast,0,2013-02-13 02:54:00
9:54 PM,39.9,32.0,73,29.94,10.0,Calm,Calm,-,N/A,,Partly Cloudy,0,2013-02-13 03:54:00
10:54 PM,39.9,33.1,77,29.91,10.0,NE,4.6,-,N/A,,Mostly Cloudy,40,2013-02-13 04:54:00
11:54 PM,41.0,32.0,70,29.91,10.0,NNE,5.8,-,N/A,,Overcast,20,2013-02-13 05:54:00